User: anonymous   Login
Location: Unspecified
(0.0000°N, 0.0000°E)
Time: 01:06:54
(UTC+00:00)
Language:

SES-16/GOVSAT-1 - Orbit

View from above orbital plane
View from above orbital plane
View from above satellite
View from above satellite

Ground track
Ground track

The orbit data is extracted from the following two-line orbital elements,

1 43178U 18013A   18154.99228503 0.00000000  00000-0  00000-0 0    06
2 43178   0.0150 271.0254 0019400 354.9946   4.9864  1.00270000    07
Epoch (UTC): 03 June 2018 23:48:53
Eccentricity: 0.0019400
inclination: 0.0150°
perigee height: 35705 km
apogee height: 35868 km
right ascension of ascending node: 271.0254°
argument of perigee: 354.9946°
revolutions per day: 1.00270000
mean anomaly at epoch: 4.9864°
orbit number at epoch: 0

The dashed part of the orbit path shows where the satellite is in the earth's shadow,  

DLR